Location: Stony Plain
(53.5279°N, 114.0019°W)
Time: 22:11:54
(UTC-06:00)

OTV 5 (USA 277) - Visible Passes

Search period start: 17 October 2019 00:00
Search period end: 27 October 2019 00:00
Orbit: 310 x 324 km, 54.5° (Epoch: 08 October)

Date Brightness Start Highest point End Pass type
(mag) Time Alt. Az. Time Alt. Az. Time Alt. Az.
17 Oct ? 05:56:07 31° SE 05:56:07 31° SE 05:57:45 10° ESE visible
17 Oct ? 07:27:30 10° WSW 07:28:54 13° SW 07:30:18 10° S visible
18 Oct ? 06:10:32 24° SSE 06:10:32 24° SSE 06:12:01 10° SE visible
19 Oct ? 06:25:04 14° S 06:25:04 14° S 06:25:51 10° S visible
